Weather History for Windsor Locks, CT

Change the Weather History Date:

Sunday, November 24, 2013

  Actual Average Record
Temperature  
Mean Temperature 24 °F 40 °F  
Max Temperature 28 °F 48 °F 69 °F (1931)
Min Temperature 19 °F 31 °F 1 °F (1989)
Degree Days  
Heating Degree Days 41 25  
Month to date heating degree days 543 517  
Since 1 July heating degree days 1026 1046  
Cooling Degree Days 0 0  
Month to date cooling degree days 0 0  
Year to date cooling degree days 894 756  
Moisture  
Dew Point 3 °F    
Average Humidity 43    
Maximum Humidity 57    
Minimum Humidity 29    
Precipitation  
Precipitation T in 0.13 in 1.24 in (1923)
Month to date precipitation 0.58 3.11  
Year to date precipitation 44.35 41.63  
Snow  
Snow T in 0.10 in 3.50 in (1935)
Month to date snowfall T 1.3  
Since 1 July snowfall T 1.3  
Since 1 September snowfall T 1.3  
Snow Depth 0.00 in    
Sea Level Pressure  
Sea Level Pressure 30.06 in    
Wind  
Wind Speed 19 mph (NW)    
Max Wind Speed 31 mph    
Max Gust Speed 40 mph    
Visibility 10 miles    
Events Snow    
T = Trace of Precipitation, MM = Missing Value Source: NWS Daily Summary

Daily Weather History Graph

Daily Weather History Graph

Search for Another Location

Airport:

Trip Planner

Search our weather history database for the weather conditions in past years. The results will help you decide how hot, cold, wet, or windy it might be!

Date:

Astronomy

Nov. 24, 2013 Rise Set
Actual Time 6:51 AM EST 4:23 PM EST
Civil Twilight 6:20 AM EST 4:53 PM EST
Nautical Twilight 5:46 AM EST 5:28 PM EST
Astronomical Twilight 5:13 AM EST 6:01 PM EST
Moon 10:49 PM EST (11/24) 11:35 AM EST (11/24)
Length of Visible Light 10h 33m
Length of Day
9h 31m
Waning Gibbous, 61% of the Moon is Illuminated
Nov 24
Waning Gibbous
Nov 25
Last Quarter
Dec 2
New
Dec 9
First Quarter
Dec 17
Full

Hourly Weather History & Observations

Time (EST) Temp. Windchill Dew Point Humidity Pressure Visibility Wind Dir Wind Speed Gust Speed Precip Events Conditions
12:28 AM 24.8 °F 11.1 °F 17.6 °F 74% 29.90 in 2.0 mi NW 18.4 mph 27.6 mph 0.00 in Snow Light Snow
12:34 AM 24.8 °F 11.9 °F 19.4 °F 80% 29.90 in 5.0 mi West 16.1 mph 25.3 mph 0.00 in Snow Light Snow
12:51 AM 26.1 °F 11.6 °F 10.0 °F 51% 29.90 in 10.0 mi WNW 21.9 mph 33.4 mph 0.00 in   Scattered Clouds
1:51 AM 25.0 °F 10.6 °F 5.0 °F 43% 29.91 in 10.0 mi WNW 20.7 mph 29.9 mph N/A   Partly Cloudy
2:51 AM 23.0 °F 9.6 °F 6.1 °F 48% 29.91 in 10.0 mi WNW 16.1 mph 28.8 mph 0.00 in   Partly Cloudy
3:51 AM 21.9 °F 9.2 °F 8.1 °F 55% 29.91 in 10.0 mi WNW 13.8 mph 23.0 mph N/A   Partly Cloudy
4:51 AM 21.9 °F 10.4 °F 9.0 °F 58% 29.93 in 10.0 mi NW 11.5 mph 19.6 mph N/A   Scattered Clouds
5:51 AM 21.9 °F 4.5 °F 3.9 °F 46% 29.94 in 10.0 mi NW 27.6 mph 38.0 mph N/A   Scattered Clouds
6:51 AM 19.0 °F 3.2 °F 3.9 °F 52% 29.96 in 10.0 mi NW 19.6 mph 32.2 mph N/A   Scattered Clouds
7:51 AM 19.0 °F 3.6 °F 3.9 °F 52% 30.00 in 10.0 mi NW 18.4 mph 36.8 mph N/A   Partly Cloudy
8:51 AM 21.0 °F 8.1 °F 1.0 °F 42% 30.03 in 10.0 mi NNW 13.8 mph 25.3 mph N/A   Partly Cloudy
9:51 AM 21.9 °F 5.5 °F 1.0 °F 40% 30.06 in 10.0 mi NW 24.2 mph 32.2 mph N/A   Scattered Clouds
10:51 AM 23.0 °F 6.0 °F 1.0 °F 39% 30.06 in 10.0 mi WNW 27.6 mph 36.8 mph N/A   Partly Cloudy
11:51 AM 24.1 °F 8.3 °F -0.9 °F 34% 30.06 in 10.0 mi NW 24.2 mph 31.1 mph N/A   Partly Cloudy
12:51 PM 25.0 °F 9.2 °F -2.0 °F 31% 30.05 in 10.0 mi NW 25.3 mph 33.4 mph N/A   Partly Cloudy
1:51 PM 27.0 °F 11.9 °F -0.9 °F 30% 30.07 in 10.0 mi NW 25.3 mph 32.2 mph N/A   Partly Cloudy
2:51 PM 26.1 °F 10.4 °F -2.0 °F 30% 30.11 in 10.0 mi NW 26.5 mph 39.1 mph N/A   Partly Cloudy
3:51 PM 25.0 °F 12.6 °F -0.0 °F 34% 30.15 in 10.0 mi NW 15.0 mph 21.9 mph N/A   Partly Cloudy
4:51 PM 24.1 °F 9.8 °F -0.0 °F 35% 30.17 in 10.0 mi WNW 19.6 mph 28.8 mph N/A   Scattered Clouds
5:51 PM 23.0 °F 10.1 °F -2.9 °F 32% 30.19 in 10.0 mi NW 15.0 mph 27.6 mph N/A   Partly Cloudy
6:51 PM 23.0 °F 7.6 °F -0.9 °F 35% 30.22 in 10.0 mi NW 21.9 mph 26.5 mph N/A   Clear
7:51 PM 21.9 °F 8.2 °F -0.0 °F 38% 30.23 in 10.0 mi WNW 16.1 mph 31.1 mph N/A   Clear
8:51 PM 21.9 °F 8.7 °F 1.9 °F 42% 30.24 in 10.0 mi WNW 15.0 mph - N/A   Clear
9:51 PM 21.9 °F 8.2 °F 1.9 °F 42% 30.25 in 10.0 mi NW 16.1 mph 23.0 mph N/A   Clear
10:51 PM 21.0 °F 7.1 °F 1.0 °F 42% 30.26 in 10.0 mi NW 16.1 mph 27.6 mph N/A   Clear
11:51 PM 19.9 °F 5.2 °F 1.0 °F 44% 30.28 in 10.0 mi NW 17.3 mph 23.0 mph N/A   Clear